Deer Park, WA

9:21 PM PDT on June 25, 2017 (GMT -0700)
Deer Park

Weather History for KDEW - February, 2014

Change the Weather History Date:

Sunday, February 2, 2014

  Actual Average Record
Temperature  
Mean Temperature 25 °F 29 °F  
Max Temperature 28 °F 36 °F 50 °F (2005)
Min Temperature 21 °F 22 °F 5 °F (2011)
Degree Days  
Heating Degree Days 40 36  
Month to date heating degree days 95 72  
Since 1 July heating degree days 4426 4468  
Cooling Degree Days 0 0  
Month to date cooling degree days 0 0  
Year to date cooling degree days 0 0  
Moisture  
Dew Point 19 °F    
Average Humidity 79    
Maximum Humidity 88    
Minimum Humidity 69    
Precipitation  
Precipitation T in 0.07 in 0.42 in (1999)
Month to date precipitation T 0.14  
Year to date precipitation 1.68 2.77  
Sea Level Pressure  
Sea Level Pressure 30.00 in    
Wind  
Wind Speed 6 mph (North)    
Max Wind Speed 10 mph    
Max Gust Speed 13 mph    
Visibility 9 miles    
Events Snow    
T = Trace of Precipitation, MM = Missing Value Source: NWS Daily Summary

Daily Weather History Graph

Daily Weather History Graph

Search for Another Location

Airport or City:

Trip Planner

Search our weather history database for the weather conditions in past years. The results will help you decide how hot, cold, wet, or windy it might be!

Date:

Astronomy

Feb. 02, 2014 Rise Set
Actual Time 7:15 AM PST 4:51 PM PST
Civil Twilight 6:42 AM PST 5:24 PM PST
Nautical Twilight 6:05 AM PST 6:02 PM PST
Astronomical Twilight 5:29 AM PST 6:38 PM PST
Moon 8:26 AM PST (2/2) 9:02 PM PST (2/2)
Length of Visible Light 10h 42m
Length of Day
9h 35m
Waxing Crescent, 12% of the Moon is Illuminated
Feb 2
Waxing Crescent
Feb 6
First Quarter
Feb 14
Full
Feb 22
Last Quarter
Mar 1
New

Hourly Weather History & Observations

Time (PST) Temp. Windchill Dew Point Humidity Pressure Visibility Wind Dir Wind Speed Gust Speed Precip Events Conditions
12:53 AM 23.0 °F 15.8 °F 19.0 °F 85% 30.15 in 10.0 mi North 5.8 mph - N/A   Overcast
1:53 AM 23.0 °F 17.0 °F 19.0 °F 85% 30.15 in 10.0 mi North 4.6 mph - N/A   Overcast
2:53 AM 23.0 °F 14.7 °F 19.0 °F 85% 30.14 in 10.0 mi NNE 6.9 mph - N/A   Overcast
3:53 AM 23.0 °F 13.9 °F 18.0 °F 81% 30.13 in 10.0 mi NNE 8.1 mph - N/A   Overcast
4:53 AM 23.0 °F 15.8 °F 18.0 °F 81% 30.12 in 10.0 mi North 5.8 mph - N/A   Overcast
5:53 AM 23.0 °F 17.0 °F 18.0 °F 81% 30.11 in 10.0 mi NNW 4.6 mph - N/A   Overcast
6:53 AM 23.0 °F 15.8 °F 18.0 °F 81% 30.10 in 10.0 mi NNW 5.8 mph - N/A   Overcast
7:53 AM 23.0 °F 14.7 °F 18.0 °F 81% 30.10 in 9.0 mi North 6.9 mph - 0.00 in   Overcast
8:53 AM 23.0 °F 17.0 °F 18.0 °F 81% 30.10 in 7.0 mi NNW 4.6 mph - 0.00 in Snow Light Snow
9:53 AM 24.1 °F 17.0 °F 18.0 °F 77% 30.10 in 10.0 mi North 5.8 mph - 0.00 in   Overcast
10:53 AM 26.1 °F 18.4 °F 19.0 °F 75% 30.07 in 10.0 mi NNE 6.9 mph - N/A   Overcast
11:53 AM 26.1 °F 16.8 °F 19.0 °F 75% 30.05 in 10.0 mi NNE 9.2 mph - N/A   Overcast
12:53 PM 27.0 °F 20.5 °F 19.9 °F 75% 30.03 in 10.0 mi North 5.8 mph - N/A   Overcast
1:53 PM 28.0 °F 21.7 °F 19.9 °F 72% 30.01 in 10.0 mi NNE 5.8 mph - N/A   Overcast
2:53 PM 28.0 °F - 21.0 °F 75% 30.00 in 10.0 mi Calm Calm - N/A   Overcast
3:53 PM 27.0 °F 19.5 °F 19.9 °F 75% 30.00 in 10.0 mi North 6.9 mph - N/A   Overcast
4:06 PM 26.1 °F 19.4 °F 19.9 °F 78% 29.92 in 10.0 mi NNE 5.8 mph - N/A   Overcast
4:53 PM 26.1 °F 19.4 °F 19.9 °F 78% 29.99 in 10.0 mi NNW 5.8 mph - N/A   Overcast
5:53 PM 25.0 °F 18.1 °F 19.9 °F 81% 29.99 in 10.0 mi NNW 5.8 mph - 0.00 in   Overcast
6:27 PM 24.1 °F 16.0 °F 19.0 °F 81% 29.89 in 10.0 mi NNE 6.9 mph - N/A   Overcast
6:53 PM 24.1 °F 16.0 °F 19.0 °F 81% 29.97 in 10.0 mi NNW 6.9 mph - N/A   Overcast
7:53 PM 24.1 °F 16.0 °F 19.9 °F 84% 29.96 in 6.0 mi North 6.9 mph - 0.00 in Snow Light Snow
8:44 PM 23.0 °F 13.9 °F 19.0 °F 85% 29.87 in 9.0 mi North 8.1 mph - 0.00 in Snow Light Snow
8:53 PM 23.0 °F 13.9 °F 19.0 °F 85% 29.96 in 10.0 mi North 8.1 mph - 0.00 in   Overcast
9:24 PM 23.0 °F 15.8 °F 19.0 °F 85% 29.87 in 10.0 mi North 5.8 mph - N/A   Overcast
9:40 PM 23.0 °F 15.8 °F 19.0 °F 85% 29.87 in 7.0 mi NW 5.8 mph - 0.00 in Snow Light Snow
9:53 PM 23.0 °F 15.8 °F 19.0 °F 85% 29.95 in 10.0 mi NNW 5.8 mph - 0.00 in   Overcast
10:08 PM 21.9 °F 13.4 °F 19.0 °F 89% 29.86 in 10.0 mi NNW 6.9 mph - N/A   Overcast
10:30 PM 23.0 °F 14.7 °F 19.0 °F 85% 29.87 in 10.0 mi NW 6.9 mph - 0.00 in   Overcast
10:53 PM 23.0 °F 14.7 °F 19.0 °F 85% 29.95 in 4.0 mi NW 6.9 mph - 0.00 in Snow Light Snow
11:36 PM 21.9 °F - 19.0 °F 89% 29.87 in 4.0 mi Calm Calm - 0.00 in Snow Light Snow
11:53 PM 21.0 °F 16.2 °F 19.0 °F 92% 29.96 in 7.0 mi NNW 3.5 mph - 0.00 in   Overcast